Location: Tel Aviv
(32.0670°N, 34.7670°E)
Time: 19:49:26
(UTC+03:00)

Vanguard 2 Rocket - Pass Details

Date: 24 January 2022
Orbit: 553 x 3323 km, 32.9° (Epoch: 24 May)

Event Time Altitude Azimuth Distance (km) Brightness Sun altitude
Exits shadow 02:12:12 65° 93° (E) 3,383 9.5 -56.3°
Drops below altitude 10° 02:28:49 10° 78° (ENE) 6,228 11.6 -52.8°
Sets 02:33:26 0° 78° (ENE) 7,130 12.1 -51.9°
